DELTA 1 DEB, 40773

Orbit data source: Space-Track

DELTA 1 DEB, 40773 is space debris in SSO originally from a launch on Thu, 29 Jul 1976 UTC launched from the Air Force Western Test Range (AFWTR). Debris objects in space refer to the collection of defunct objects orbiting the Earth. Examples of debris include non-operational satellites, rocket bodies, and fragments generated from explosions, collisions, or faulty payload assembly.

Loading next visibility...
Identifier
40773, 1976-077GS
Orbit
SSO
Country
Flag of USUS
Related business
Manufacturer
Unknown
Mission
Spacecraft
Bus & Motor
Unknown
Mass
Unknown
Launch date (UTC)
1976-07-29 (50 years ago)
Launch vehicle
Unknown
Launch site
Air Force Western Test Range (AFWTR)
Object type
Payload
Rocket body
Debris
Shape & HBR
Unknown shape, 0.1 m
Radar Cross Section
Small (<0.1 m²)

Expand to show TLE details & history
Last TLE update: 3 days ago

TLE from 3 days ago
0 DELTA 1 DEB
1 40773U 76077GS  26253.15632534 -.00000019  00000-0  22843-3 0  9998
2 40773 102.4853 230.9026 0082109 145.3660 215.2779 12.27348209982878
Epoch: 2026-09-10T03:45Z
TLE epoch observation values (Epoch: 2026-09-10T03:45:06.509Z)
Latitude
0.00001°
Longitude
-174.5726°
Altitude
1,616.608 km
Speed
7.039 km/s
True Right ascension
15h 23m 36s
True Declination
0° 00' 00"
Sunlit
Object was in daylight at epoch
Visualization orbit readout
Latitude
Unknown
Longitude
Unknown
Altitude
Unknown
Speed
Unknown
Apparent Right ascension
Unknown
Apparent Declination
Unknown
Sunlit
N/A
Visualization observer readout
Local Sidereal Time
05:19:04
Azimuth
Unknown
Elevation
Unknown
Doppler factor
Unknown
Orbital elements
Apogee altitude
1,623.481 km
Perigee altitude
1,493.15 km
Semi-major axis
7,936.453 km
Eccentricity
0.00821
Inclination
102.4853°
RAAN
230.9026°
Arg. of periapsis
145.366°
True anomaly
214.73901°
Mean anomaly
215.2779°
Eccentric anomaly
215.00801°
Mean motion
3.06975 °/min
Orbital period
117.27 mins
BSTAR
0.00022843
Loading maneuver chart data...
Computing Atmospheric mass density...
Loading historical data...
Loading historical data...
Loading historical data...
Loading historical data...
Loading historical data...
Loading historical data...
Loading historical data...

Documentation

Showing up to 5 results
|